When you browse on this site, cookies collect data to enhance your experience and personalize the content and advertising you see.
Visit our Privacy Policy to learn more. By continuing to use the site, you agree to this use of cookies and data.
  • In Switzerland
  • List of Countries
  • For 7 days
  • Water Temperature
  • Satellite Maps
  • Weather Map
  • Weather Widgets
  • user-avatar
    Login

    Hourly Weather Kalat

    Today, 17 June, Monday

    Time Temperature Precipitation Wind Pressure Humidity
    00:00 +2°C° 0 mm 2 mps 475 mmHg 77%
    01:00 +1°C° 0 mm 2 mps 474 mmHg 78%
    02:00 +1°C° 0 mm 2 mps 474 mmHg 79%
    03:00 +2°C° 0 mm 1 mps 474 mmHg 79%
    04:00 +1°C° 0 mm 1 mps 473 mmHg 79%
    05:00 0°C° 0 mm 1 mps 472 mmHg 81%
    06:00 +1°C° 0 mm 1 mps 473 mmHg 78%
    07:00 +2°C° 0 mm 1 mps 474 mmHg 76%
    08:00 +3°C° 0 mm 1 mps 475 mmHg 74%
    09:00 +4°C° 0 mm 1 mps 475 mmHg 71%
    10:00 +5°C° 0 mm 1 mps 476 mmHg 68%
    11:00 +6°C° 0 mm 1 mps 476 mmHg 65%
    12:00 +5°C° 0.1 mm 2 mps 476 mmHg 63%
    13:00 +6°C° 0.1 mm 2 mps 477 mmHg 60%
    14:00 +7°C° 0.1 mm 2 mps 477 mmHg 58%
    15:00 +6°C° 0.3 mm 2 mps 476 mmHg 62%
    16:00 +6°C° 0.3 mm 2 mps 476 mmHg 66%
    17:00 +5°C° 0.3 mm 2 mps 475 mmHg 69%
    18:00 +4°C° 0.3 mm 2 mps 475 mmHg 70%
    19:00 +4°C° 0.3 mm 2 mps 475 mmHg 71%
    20:00 +3°C° 0.3 mm 2 mps 474 mmHg 72%
    21:00 +2°C° 0 mm 2 mps 474 mmHg 74%
    22:00 +3°C° 0 mm 1 mps 474 mmHg 76%
    23:00 +3°C° 0 mm 1 mps 474 mmHg 78%

    Tomorrow, 18 June, Tuesday

    Time Temperature Precipitation Wind Pressure Humidity
    00:00 +2°C° 0 mm 1 mps 474 mmHg 79%
    01:00 +2°C° 0 mm 1 mps 473 mmHg 79%
    02:00 +2°C° 0 mm 1 mps 473 mmHg 80%
    03:00 +2°C° 0 mm 1 mps 473 mmHg 80%
    04:00 +1°C° 0 mm 1 mps 473 mmHg 80%
    05:00 +1°C° 0 mm 1 mps 472 mmHg 81%
    06:00 +2°C° 0 mm 1 mps 473 mmHg 78%
    07:00 +2°C° 0 mm 1 mps 473 mmHg 74%
    08:00 +3°C° 0 mm 1 mps 474 mmHg 71%
    09:00 +4°C° 0 mm 1 mps 474 mmHg 67%
    10:00 +5°C° 0 mm 1 mps 475 mmHg 62%
    11:00 +6°C° 0 mm 1 mps 476 mmHg 57%
    12:00 +6°C° 0 mm 2 mps 476 mmHg 55%
    13:00 +7°C° 0 mm 2 mps 477 mmHg 53%
    14:00 +8°C° 0 mm 2 mps 477 mmHg 51%
    15:00 +7°C° 0.3 mm 2 mps 477 mmHg 53%
    16:00 +7°C° 0.3 mm 2 mps 476 mmHg 56%
    17:00 +7°C° 0.3 mm 3 mps 476 mmHg 58%
    18:00 +6°C° 0.1 mm 2 mps 475 mmHg 61%
    19:00 +5°C° 0.1 mm 2 mps 475 mmHg 64%
    20:00 +5°C° 0.1 mm 2 mps 475 mmHg 66%
    21:00 +4°C° 0 mm 2 mps 475 mmHg 68%
    22:00 +5°C° 0 mm 1 mps 475 mmHg 69%
    23:00 +5°C° 0 mm 1 mps 474 mmHg 71%

    Day after tomorrow, 19 June, Wednesday

    Time Temperature Precipitation Wind Pressure Humidity
    00:00 +4°C° 0 mm 1 mps 474 mmHg 72%
    01:00 +4°C° 0 mm 1 mps 474 mmHg 74%
    02:00 +3°C° 0 mm 1 mps 474 mmHg 75%
    03:00 +3°C° 0 mm 1 mps 473 mmHg 76%
    04:00 +3°C° 0 mm 1 mps 473 mmHg 77%
    05:00 +1°C° 0 mm 0 mps 473 mmHg 78%
    06:00 +2°C° 0 mm 0 mps 474 mmHg 72%
    07:00 +3°C° 0 mm 0 mps 474 mmHg 66%
    08:00 +4°C° 0 mm 0 mps 475 mmHg 60%
    09:00 +5°C° 0 mm 0 mps 476 mmHg 53%
    10:00 +7°C° 0 mm 0 mps 477 mmHg 45%
    11:00 +9°C° 0 mm 1 mps 478 mmHg 38%
    12:00 +10°C° 0 mm 1 mps 478 mmHg 36%
    13:00 +10°C° 0 mm 1 mps 478 mmHg 34%
    14:00 +10°C° 0 mm 2 mps 479 mmHg 33%
    15:00 +10°C° 0.2 mm 2 mps 478 mmHg 36%
    16:00 +10°C° 0.2 mm 3 mps 478 mmHg 39%
    17:00 +9°C° 0.2 mm 3 mps 478 mmHg 42%
    18:00 +8°C° 0.2 mm 3 mps 477 mmHg 47%
    19:00 +7°C° 0.2 mm 2 mps 477 mmHg 53%
    20:00 +6°C° 0.2 mm 2 mps 476 mmHg 58%
    21:00 +6°C° 0 mm 2 mps 476 mmHg 60%
    22:00 +5°C° 0 mm 2 mps 476 mmHg 63%
    23:00 +6°C° 0 mm 1 mps 476 mmHg 65%

    20 June, Thursday

    Time Temperature Precipitation Wind Pressure Humidity
    00:00 +5°C° 0 mm 1 mps 475 mmHg 66%
    01:00 +5°C° 0 mm 1 mps 475 mmHg 68%
    02:00 +5°C° 0 mm 1 mps 475 mmHg 69%
    03:00 +4°C° 0 mm 1 mps 475 mmHg 71%
    04:00 +4°C° 0 mm 1 mps 475 mmHg 72%
    05:00 +4°C° 0 mm 1 mps 474 mmHg 73%
    06:00 +4°C° 0 mm 1 mps 475 mmHg 68%
    07:00 +5°C° 0 mm 1 mps 476 mmHg 63%
    08:00 +6°C° 0 mm 1 mps 476 mmHg 58%
    09:00 +7°C° 0 mm 1 mps 477 mmHg 52%
    10:00 +8°C° 0 mm 1 mps 478 mmHg 47%
    11:00 +10°C° 0 mm 1 mps 479 mmHg 41%
    12:00 +10°C° 0.1 mm 1 mps 479 mmHg 41%
    13:00 +10°C° 0.1 mm 2 mps 479 mmHg 41%
    14:00 +10°C° 0.1 mm 3 mps 479 mmHg 41%
    15:00 +10°C° 0.4 mm 2 mps 478 mmHg 45%
    16:00 +9°C° 0.4 mm 2 mps 478 mmHg 50%
    17:00 +8°C° 0.4 mm 2 mps 477 mmHg 54%
    18:00 +8°C° 0.1 mm 2 mps 477 mmHg 56%
    19:00 +8°C° 0.1 mm 2 mps 477 mmHg 57%
    20:00 +7°C° 0.1 mm 2 mps 477 mmHg 58%
    21:00 +7°C° 0.1 mm 2 mps 477 mmHg 62%
    22:00 +7°C° 0.1 mm 1 mps 477 mmHg 66%
    23:00 +7°C° 0.1 mm 1 mps 477 mmHg 70%

    21 June, Friday

    Time Temperature Precipitation Wind Pressure Humidity
    00:00 +6°C° 0 mm 1 mps 476 mmHg 72%
    01:00 +6°C° 0 mm 1 mps 476 mmHg 74%
    02:00 +5°C° 0 mm 1 mps 476 mmHg 76%
    03:00 +5°C° 0 mm 1 mps 475 mmHg 77%
    04:00 +5°C° 0 mm 1 mps 475 mmHg 78%
    05:00 +3°C° 0 mm 0 mps 475 mmHg 80%
    06:00 +4°C° 0 mm 0 mps 476 mmHg 73%
    07:00 +6°C° 0 mm 1 mps 476 mmHg 65%
    08:00 +7°C° 0 mm 1 mps 477 mmHg 58%
    09:00 +8°C° 0 mm 1 mps 478 mmHg 51%
    10:00 +9°C° 0 mm 1 mps 479 mmHg 44%
    11:00 +10°C° 0 mm 1 mps 479 mmHg 37%
    12:00 +11°C° 0.1 mm 1 mps 480 mmHg 36%
    13:00 +12°C° 0.1 mm 1 mps 480 mmHg 34%
    14:00 +12°C° 0.1 mm 2 mps 480 mmHg 33%
    15:00 +12°C° 0.2 mm 2 mps 479 mmHg 39%
    16:00 +10°C° 0.2 mm 3 mps 479 mmHg 45%
    17:00 +10°C° 0.2 mm 3 mps 478 mmHg 52%
    18:00 +9°C° 0.2 mm 2 mps 478 mmHg 55%
    19:00 +9°C° 0.2 mm 1 mps 478 mmHg 59%
    20:00 +9°C° 0.2 mm 1 mps 478 mmHg 62%
    21:00 +8°C° 0 mm 1 mps 478 mmHg 64%
    22:00 +8°C° 0 mm 1 mps 478 mmHg 65%
    23:00 +8°C° 0 mm 1 mps 478 mmHg 66%

    22 June, Saturday

    Time Temperature Precipitation Wind Pressure Humidity
    00:00 +7°C° 0 mm 1 mps 477 mmHg 69%
    01:00 +7°C° 0 mm 1 mps 477 mmHg 71%
    02:00 +6°C° 0 mm 1 mps 476 mmHg 74%
    03:00 +6°C° 0 mm 1 mps 476 mmHg 75%
    04:00 +5°C° 0 mm 0 mps 476 mmHg 77%
    05:00 +4°C° 0 mm 0 mps 475 mmHg 78%
    06:00 +6°C° 0 mm 1 mps 476 mmHg 71%
    07:00 +7°C° 0 mm 1 mps 477 mmHg 63%
    08:00 +8°C° 0 mm 1 mps 478 mmHg 55%
    09:00 +9°C° 0 mm 1 mps 479 mmHg 49%
    10:00 +10°C° 0 mm 1 mps 480 mmHg 43%
    11:00 +12°C° 0 mm 1 mps 480 mmHg 37%
    12:00 +12°C° 0.1 mm 1 mps 480 mmHg 40%
    13:00 +12°C° 0.1 mm 2 mps 480 mmHg 44%
    14:00 +12°C° 0.1 mm 2 mps 480 mmHg 47%
    15:00 +10°C° 0.3 mm 2 mps 480 mmHg 50%
    16:00 +10°C° 0.3 mm 2 mps 479 mmHg 53%
    17:00 +10°C° 0.3 mm 2 mps 479 mmHg 57%
    18:00 +9°C° 0.2 mm 2 mps 479 mmHg 58%
    19:00 +9°C° 0.2 mm 3 mps 479 mmHg 60%
    20:00 +8°C° 0.2 mm 3 mps 479 mmHg 62%
    21:00 +7°C° 0 mm 2 mps 478 mmHg 64%
    22:00 +7°C° 0 mm 2 mps 478 mmHg 65%
    23:00 +6°C° 0 mm 2 mps 478 mmHg 67%
    Show more